Regional Weather Roundup
Issued by NWS Charleston, WV

Home | Current Version | Previous Version | Graphics & Text | Print | Product List | Glossary On
Versions: 1 2 3 4 5 6 7 8 9 10 11 12 13 14 15 16 17 18 19 20 21 22 23 24 25 26 27 28 29 30 31 32 33 34 35 36 37 38 39 40 41 42 43 44 45 46 47 48
000
ASUS41 KRLX 090310
RWRRLX
West Virginia Regional Weather Roundup
National Weather Service Charleston WV
1000 PM EST MON FEB 08 2016

Note: "fair" indicates few or no clouds below 12,000 feet with no
significant weather and/or obstructions to visibility.

WVZ003-090400-
Northern Panhandle of West Virginia

CITY           SKY/WX    TMP DP  RH WIND       PRES   REMARKS
WHEELING       MOCLDY    32  29  88 S5        29.60S
$$

WVZ009-090400-
Northwest West Virginia

CITY           SKY/WX    TMP DP  RH WIND       PRES   REMARKS
PARKERSBURG    LGT SNOW  32  31  96 SW5       29.66S FOG
$$

WVZ006-090400-
Western West Virginia

CITY           SKY/WX    TMP DP  RH WIND       PRES   REMARKS
HUNTINGTON     CLOUDY    34  29  82 W7G16     29.68S
$$

WVZ015-090400-
West Central West Virginia

CITY           SKY/WX    TMP DP  RH WIND       PRES   REMARKS
CHARLESTON     CLOUDY    35  30  82 SW8       29.66F
$$

WVZ022-031-090400-
North Central West Virginia

CITY           SKY/WX    TMP DP  RH WIND       PRES   REMARKS
CLARKSBURG     FLURRIES  33  32  96 SW7       29.62S
MORGANTOWN     MOCLDY    34  30  85 SW3       29.62S
$$

WVZ025-035-042-045-090400-
Southern West Virginia

CITY           SKY/WX    TMP DP  RH WIND       PRES   REMARKS
BECKLEY          N/A     29  24  82 W8        29.62S
LOGAN          LGT SNOW  32  30  93 W9G16     29.65S
BLUEFIELD      CLOUDY    28  24  85 W6        29.62S
LEWISBURG      CLOUDY    33  28  79 W5        29.61F
$$

WVZ047-090400-
Northern Mountains of West Virginia

CITY           SKY/WX    TMP DP  RH WIND       PRES   REMARKS
ELKINS         LGT SNOW  32  29  88 W3        29.60F FOG
$$

WVZ052-090400-
Eastern Panhandle of West Virginia

CITY           SKY/WX    TMP DP  RH WIND       PRES   REMARKS
MARTINSBURG    CLOUDY    39  28  64 S6        29.64S
PETERSBURG     CLOUDY    35  33  93 CALM      29.62F
$$




USA.gov is the U.S. government's official web portal to all federal, state and local government web resources and services.